Weather History for KBKX - January, 2012

Change the Weather History Date:

Monday, January 9, 2012

  Actual Average Record
Temperature  
Mean Temperature 38 °F -  
Max Temperature 51 °F 20 °F 51 °F (2012)
Min Temperature 24 °F 5 °F -22 °F (1999)
Degree Days  
Heating Degree Days 28    
Moisture  
Dew Point 23 °F    
Average Humidity 62    
Maximum Humidity 80    
Minimum Humidity 41    
Precipitation  
Precipitation 0.00 in - - ()
Sea Level Pressure  
Sea Level Pressure 30.01 in    
Wind  
Wind Speed 9 mph (WSW)    
Max Wind Speed 14 mph    
Max Gust Speed 16 mph    
Visibility 10 miles    
Events      
Averages and records for this station are not official NWS values.
T = Trace of Precipitation, MM = Missing Value Source: NWS Daily Summary

Daily Weather History Graph

Daily Weather History Graph

Search for Another Location

Airport or City:

Trip Planner

Search our weather history database for the weather conditions in past years. The results will help you decide how hot, cold, wet, or windy it might be!

Date:

Astronomy

Jan. 09, 2012 Rise Set
Actual Time 8:02 AM CST 5:06 PM CST
Civil Twilight 7:29 AM CST 5:39 PM CST
Nautical Twilight 6:53 AM CST 6:15 PM CST
Astronomical Twilight 6:18 AM CST 6:50 PM CST
Moon 5:56 PM CST (1/9) 8:01 AM CST (1/9)
Length of Visible Light 10h 09m
Length of Day
9h 04m
Full, 100% of the Moon is Illuminated
Jan 9
Full
Jan 16
Last Quarter
Jan 23
New
Jan 30
First Quarter
Feb 7
Full

Hourly Weather History & Observations

Time (CST) Temp. Windchill Dew Point Humidity Pressure Visibility Wind Dir Wind Speed Gust Speed Precip Events Conditions
12:15 AM 26.6 °F 17.5 °F 21.2 °F 80% 30.08 in 10.0 mi SW 9.2 mph - N/A   Clear
12:35 AM 26.6 °F 18.2 °F 21.2 °F 80% 30.07 in 10.0 mi SW 8.1 mph - N/A   Clear
12:55 AM 26.6 °F 17.5 °F 21.2 °F 80% 30.06 in 10.0 mi SW 9.2 mph - N/A   Clear
1:15 AM 26.6 °F 17.5 °F 19.4 °F 74% 30.05 in 10.0 mi SSW 9.2 mph - N/A   Clear
1:35 AM 26.6 °F 16.2 °F 19.4 °F 74% 30.05 in 10.0 mi SSW 11.5 mph - N/A   Clear
1:55 AM 26.6 °F 16.8 °F 19.4 °F 74% 30.04 in 10.0 mi SSW 10.4 mph - N/A   Clear
2:15 AM 24.8 °F 15.3 °F 19.4 °F 80% 30.04 in 10.0 mi SSW 9.2 mph - N/A   Clear
2:35 AM 24.8 °F 16.1 °F 19.4 °F 80% 30.04 in 10.0 mi SW 8.1 mph - N/A   Clear
2:55 AM 24.8 °F 16.1 °F 19.4 °F 80% 30.03 in 10.0 mi SSW 8.1 mph - N/A   Clear
3:15 AM 26.6 °F 17.5 °F 19.4 °F 74% 30.03 in 10.0 mi SW 9.2 mph - N/A   Clear
3:35 AM 26.6 °F 16.2 °F 19.4 °F 74% 30.01 in 10.0 mi SW 11.5 mph - N/A   Clear
3:55 AM 26.6 °F 16.8 °F 19.4 °F 74% 30.01 in 10.0 mi WSW 10.4 mph - N/A   Clear
4:15 AM 26.6 °F 15.7 °F 19.4 °F 74% 30.01 in 10.0 mi WSW 12.7 mph - N/A   Clear
4:35 AM 28.4 °F 18.0 °F 21.2 °F 74% 30.01 in 10.0 mi WSW 12.7 mph - N/A   Clear
4:55 AM 28.4 °F 18.0 °F 21.2 °F 74% 30.00 in 10.0 mi SW 12.7 mph - N/A   Clear
5:15 AM 28.4 °F 19.1 °F 19.4 °F 69% 30.00 in 10.0 mi SW 10.4 mph - N/A   Clear
5:35 AM 28.4 °F 19.1 °F 19.4 °F 69% 30.01 in 10.0 mi WSW 10.4 mph - N/A   Clear
5:55 AM 28.4 °F 19.1 °F 19.4 °F 69% 30.01 in 10.0 mi WSW 10.4 mph - N/A   Clear
6:15 AM 26.6 °F 17.5 °F 19.4 °F 74% 30.01 in 10.0 mi WSW 9.2 mph - N/A   Clear
6:35 AM 26.6 °F 18.2 °F 19.4 °F 74% 30.01 in 10.0 mi WSW 8.1 mph - N/A   Clear
6:55 AM 26.6 °F 18.2 °F 19.4 °F 74% 30.01 in 10.0 mi WSW 8.1 mph - N/A   Clear
7:15 AM 26.6 °F 19.1 °F 19.4 °F 74% 30.01 in 10.0 mi WSW 6.9 mph - N/A   Clear
7:35 AM 28.4 °F 22.2 °F 19.4 °F 69% 30.01 in 10.0 mi WSW 5.8 mph - N/A   Clear
7:55 AM 26.6 °F 20.0 °F 17.6 °F 69% 30.00 in 10.0 mi WSW 5.8 mph - N/A   Clear
8:15 AM 28.4 °F 21.2 °F 19.4 °F 69% 30.00 in 10.0 mi WSW 6.9 mph - N/A   Clear
8:35 AM 28.4 °F 21.2 °F 19.4 °F 69% 30.01 in 10.0 mi WSW 6.9 mph - N/A   Clear
8:55 AM 28.4 °F 20.4 °F 19.4 °F 69% 30.01 in 10.0 mi WSW 8.1 mph - N/A   Clear
9:15 AM 30.2 °F 25.4 °F 21.2 °F 69% 30.03 in 10.0 mi NW 4.6 mph - N/A   Clear
9:35 AM 32.0 °F 27.5 °F 21.2 °F 64% 30.03 in 10.0 mi WNW 4.6 mph - N/A   Clear
10:15 AM 35.6 °F 30.7 °F 23.0 °F 60% 30.03 in 10.0 mi West 5.8 mph - N/A   Clear
10:35 AM 37.4 °F 31.4 °F 23.0 °F 56% 30.03 in 10.0 mi WNW 8.1 mph - N/A   Clear
10:55 AM 39.2 °F 34.2 °F 23.0 °F 52% 30.02 in 10.0 mi WNW 6.9 mph - N/A   Clear
11:15 AM 41.0 °F 35.2 °F 24.8 °F 53% 30.02 in 10.0 mi WNW 9.2 mph - N/A   Clear
11:35 AM 42.8 °F 38.0 °F 24.8 °F 49% 30.01 in 10.0 mi West 8.1 mph - N/A   Clear
11:55 AM 44.6 °F 39.7 °F 26.6 °F 49% 30.00 in 10.0 mi West 9.2 mph - N/A   Clear
12:15 PM 44.6 °F 39.7 °F 26.6 °F 49% 29.99 in 10.0 mi West 9.2 mph - N/A   Clear
12:35 PM 46.4 °F 42.4 °F 26.6 °F 46% 29.99 in 10.0 mi West 8.1 mph - N/A   Clear
12:55 PM 46.4 °F 41.5 °F 26.6 °F 46% 29.99 in 10.0 mi West 10.4 mph - N/A   Clear
1:15 PM 48.2 °F - 26.6 °F 43% 29.98 in 10.0 mi WSW 8.1 mph - N/A   Clear
1:35 PM 48.2 °F - 26.6 °F 43% 29.98 in 10.0 mi West 10.4 mph - N/A   Clear
1:55 PM 48.2 °F - 26.6 °F 43% 29.98 in 10.0 mi West 11.5 mph - N/A   Clear
2:15 PM 48.2 °F - 26.6 °F 43% 29.97 in 10.0 mi WSW 12.7 mph - N/A   Clear
2:35 PM 48.2 °F - 28.4 °F 46% 29.97 in 10.0 mi WSW 13.8 mph - N/A   Clear
2:55 PM 48.2 °F - 28.4 °F 46% 29.97 in 10.0 mi West 11.5 mph - N/A   Clear
3:15 PM 50.0 °F - 28.4 °F 43% 29.97 in 10.0 mi West 10.4 mph - N/A   Clear
3:35 PM 51.8 °F - 28.4 °F 41% 29.98 in 10.0 mi WNW 12.7 mph - N/A   Clear
3:55 PM 50.0 °F - 28.4 °F 43% 29.98 in 10.0 mi West 8.1 mph 16.1 mph N/A   Clear
4:15 PM 48.2 °F - 28.4 °F 46% 29.99 in 10.0 mi West 8.1 mph - N/A   Clear
4:35 PM 48.2 °F - 28.4 °F 46% 29.99 in 10.0 mi West 5.8 mph - N/A   Clear
4:55 PM 46.4 °F 44.3 °F 28.4 °F 50% 30.00 in 10.0 mi West 4.6 mph - N/A   Clear
5:15 PM 44.6 °F 42.2 °F 26.6 °F 49% 30.00 in 10.0 mi West 4.6 mph - N/A   Clear
5:35 PM 44.6 °F 42.2 °F 28.4 °F 53% 30.01 in 10.0 mi West 4.6 mph - N/A   Clear
5:55 PM 42.8 °F 39.3 °F 26.6 °F 53% 30.01 in 10.0 mi West 5.8 mph - N/A   Clear
6:15 PM 42.8 °F 41.1 °F 26.6 °F 53% 30.01 in 10.0 mi West 3.5 mph - N/A   Clear
6:35 PM 39.2 °F - 28.4 °F 65% 30.01 in 10.0 mi Calm Calm - N/A   Clear
6:55 PM 42.8 °F 41.1 °F 28.4 °F 57% 30.01 in 10.0 mi SW 3.5 mph - N/A   Clear
7:15 PM 41.0 °F 38.0 °F 26.6 °F 57% 30.01 in 10.0 mi SW 4.6 mph - N/A   Clear
7:35 PM 35.6 °F - 26.6 °F 70% 30.01 in 10.0 mi Calm Calm - N/A   Clear
7:55 PM 33.8 °F 29.6 °F 24.8 °F 70% 30.00 in 10.0 mi SSW 4.6 mph - N/A   Clear
8:15 PM 32.0 °F 28.7 °F 24.8 °F 75% 30.00 in 10.0 mi South 3.5 mph - N/A   Clear
8:35 PM 33.8 °F 30.8 °F 24.8 °F 70% 30.00 in - South 3.5 mph - N/A   Clear
8:55 PM 32.0 °F - 24.8 °F 75% 30.00 in - Calm Calm - N/A   Clear
9:15 PM 32.0 °F 25.6 °F 24.8 °F 75% 29.99 in 10.0 mi SSW 6.9 mph - N/A   Clear
9:35 PM 30.2 °F 25.4 °F 24.8 °F 80% 29.99 in 10.0 mi South 4.6 mph - N/A   Clear
9:55 PM 30.2 °F 25.4 °F 24.8 °F 80% 29.99 in 10.0 mi South 4.6 mph - N/A   Clear
10:15 PM 33.8 °F 29.6 °F 28.4 °F 81% 29.99 in 10.0 mi South 4.6 mph - N/A   Clear
10:35 PM 33.8 °F 30.8 °F 26.6 °F 75% 29.97 in 10.0 mi South 3.5 mph - N/A   Clear
10:55 PM 32.0 °F 27.5 °F 24.8 °F 75% 29.99 in - SSW 4.6 mph - N/A   Clear
11:15 PM 30.2 °F 22.6 °F 24.8 °F 80% 29.99 in 10.0 mi SSW 8.1 mph - N/A   Clear
11:35 PM 28.4 °F - 21.2 °F 74% 30.00 in 10.0 mi Calm Calm - N/A   Clear
11:55 PM 30.2 °F 26.7 °F 24.8 °F 80% 29.99 in - WSW 3.5 mph - N/A   Clear